GW0720 Weather Reports


Display with metric or nautical units.
time (UTC)temp
F
wind
direction
speed
MPH
gust
MPH
rain 1hr
in
rain 24hr
in
rain mn
in
humidity
%
barometer
mb
20260504060107 42 0 0.0 0.0 0.00 0.00 0.00 86 1016.8
20260504050107 42 0 0.0 0.0 0.00 0.00 0.00 86 1016.8
20260504044557 42 0 0.0 0.0 0.00 0.00 0.00 86 1016.8
20260504043052 42 0 0.0 0.0 0.00 0.00 0.00 86 1016.8
20260504041559 42 0 0.0 0.0 0.00 0.00 0.00 87 1016.8
20260504034559 42 0 0.0 0.0 0.00 0.00 0.00 84 1016.8
20260504033117 42 0 0.0 0.0 0.00 0.00 0.00 84 1017.0
20260504031603 43 0 0.0 0.0 0.00 0.00 0.00 84 1016.7
20260504030053 43 0 0.0 0.0 0.00 0.00 0.00 82 1016.6
20260504024600 43 0 0.0 0.0 0.00 0.00 0.00 81 1016.7
20260504023054 44 0 0.0 0.0 0.00 0.00 0.00 80 1016.7
20260504021556 44 0 0.0 0.0 0.00 0.00 0.00 79 1016.8
20260504020054 45 0 0.0 0.0 0.00 0.00 0.00 75 1016.8
20260504014555 45 0 0.0 0.0 0.00 0.00 0.00 76 1016.5
20260504013104 46 0 0.0 0.0 0.00 0.00 0.00 73 1016.7
20260504011557 47 0 0.0 0.0 0.00 0.00 0.00 71 1016.6
20260504010057 48 0 0.0 0.0 0.00 0.00 0.00 68 1016.6
20260504004623 50 0 0.0 0.0 0.00 0.00 0.00 68 1016.6
20260504003101 51 0 0.0 0.0 0.00 0.00 0.00 65 1016.4
20260504001605 53 0 0.0 0.0 0.00 0.00 0.00 63 1016.4
20260504000056 54 0 0.0 0.0 0.00 0.00 0.00 60 1016.4
20260503234555 56 0 0.0 0.0 0.00 0.00 0.00 59 1016.1
20260503233057 58 0 0.0 1.0 0.00 0.00 0.00 51 1016.1
20260503231559 59 0 0.0 1.0 0.00 0.00 0.00 43 1016.1
20260503230059 61 0 0.0 4.0 0.00 0.00 0.00 34 1016.1
20260503224555 61 49 0.0 4.0 0.00 0.00 0.00 39 1016.2
20260503223100 62 51 1.0 3.0 0.00 0.00 0.00 36 1016.3
20260503221558 62 13 0.0 4.0 0.00 0.00 0.00 33 1016.3
20260503220056 63 0 0.0 3.0 0.00 0.00 0.00 34 1016.5
20260503214601 63 0 1.0 7.0 0.00 0.00 0.00 34 1016.5
20260503213055 64 268 1.0 7.0 0.00 0.00 0.00 32 1016.3
20260503211603 64 267 1.0 6.0 0.00 0.00 0.00 32 1016.5
20260503210055 64 54 0.0 3.0 0.00 0.00 0.00 35 1016.4
20260503204559 64 155 1.0 7.0 0.00 0.00 0.00 32 1016.4
20260503203101 64 190 1.0 8.0 0.00 0.00 0.00 33 1016.5
20260503201558 65 196 1.0 8.0 0.00 0.00 0.00 33 1016.5
20260503200056 64 0 2.0 8.0 0.00 0.00 0.00 35 1016.7
20260503194554 65 0 1.0 5.0 0.00 0.00 0.00 32 1016.9
20260503193059 65 223 0.0 5.0 0.00 0.00 0.00 38 1017.1
20260503191556 64 90 1.0 6.0 0.00 0.00 0.00 35 1017.4
20260503190057 63 259 2.0 9.0 0.00 0.00 0.00 35 1017.6
20260503184606 63 245 2.0 6.0 0.00 0.00 0.00 34 1018.0
20260503183054 63 242 0.0 9.0 0.00 0.00 0.00 34 1018.0
20260503181552 62 259 1.0 6.0 0.00 0.00 0.00 35 1018.2
20260503180058 62 194 1.0 6.0 0.00 0.00 0.00 37 1018.2
20260503174608 61 213 2.0 11.0 0.00 0.00 0.00 34 1018.3
20260503173057 61 257 1.0 6.0 0.00 0.00 0.00 34 1018.2
20260503171556 60 284 2.0 8.0 0.00 0.00 0.00 37 1018.4
20260503150112 55 281 3.0 10.0 0.00 0.00 0.00 37 1019.4
20260503100106 42 0 0.0 0.0 0.00 0.00 0.00 78 1016.6
20260503081557 49 0 0.0 6.0 0.00 0.00 0.00 60 1015.6